Weather History for KDYL - April, 2013

Change the Weather History Date:

Thursday, April 25, 2013

  Actual Average (KTTN) Record (KTTN)
Temperature  
Mean Temperature 52 °F 54 °F  
Max Temperature 62 °F 65 °F 91 °F (1915)
Min Temperature 42 °F 44 °F 30 °F (1919)
Degree Days  
Heating Degree Days 13 11  
Month to date heating degree days 369  
Since 1 July heating degree days 4915  
Cooling Degree Days 0 0  
Month to date cooling degree days 0  
Year to date cooling degree days 0  
Growing Degree Days 2 (Base 50)    
Moisture  
Dew Point 31 °F    
Average Humidity 47    
Maximum Humidity 77    
Minimum Humidity 26    
Precipitation  
Precipitation 0.00 in 0.11 in 1.14 in (2010)
Month to date precipitation 3.08  
Year to date precipitation 12.69  
Sea Level Pressure  
Sea Level Pressure 30.15 in    
Wind  
Wind Speed 10 mph (WNW)    
Max Wind Speed 16 mph    
Max Gust Speed 31 mph    
Visibility 10 miles    
Events Rain    
T = Trace of Precipitation, MM = Missing Value Source: NWS Daily Summary

Daily Weather History Graph

Daily Weather History Graph

Search for Another Location

Airport or City:

Trip Planner

Search our weather history database for the weather conditions in past years. The results will help you decide how hot, cold, wet, or windy it might be!

Date:

Astronomy

Apr. 25, 2013 Rise Set
Actual Time 6:07 AM EDT 7:49 PM EDT
Civil Twilight 5:38 AM EDT 8:19 PM EDT
Nautical Twilight 5:03 AM EDT 8:54 PM EDT
Astronomical Twilight 4:26 AM EDT 9:31 PM EDT
Moon 8:00 PM EDT (4/25) 5:48 AM EDT (4/25)
Length of Visible Light 14h 40m
Length of Day
13h 42m
Full, 100% of the Moon is Illuminated
Apr 25
Full
Apr 25
Full
May 2
Last Quarter
May 9
New
May 18
First Quarter

Hourly Weather History & Observations

Time (EDT) Temp. Windchill Dew Point Humidity Pressure Visibility Wind Dir Wind Speed Gust Speed Precip Events Conditions
12:21 AM 62.6 °F - 55.4 °F 77% 29.90 in 10.0 mi West 16.1 mph 24.2 mph 0.00 in Rain Light Rain
12:50 AM 59.0 °F - 46.4 °F 63% 29.92 in 10.0 mi WNW 12.7 mph 27.6 mph 0.00 in   Overcast
12:54 AM 57.9 °F - 46.0 °F 65% 29.92 in 10.0 mi WNW 10.4 mph 27.6 mph 0.00 in   Overcast
1:54 AM 50.0 °F - 34.0 °F 54% 29.99 in 10.0 mi WNW 16.1 mph 31.1 mph N/A   Mostly Cloudy
2:54 AM 46.9 °F - 33.1 °F 59% 30.02 in 10.0 mi WNW 13.8 mph 26.5 mph N/A   Overcast
3:54 AM 46.0 °F 40.6 °F 30.9 °F 56% 30.04 in 10.0 mi NW 11.5 mph 25.3 mph N/A   Overcast
4:54 AM 44.1 °F 37.7 °F 30.9 °F 60% 30.09 in 10.0 mi NW 12.7 mph 19.6 mph N/A   Mostly Cloudy
5:54 AM 42.1 °F 36.6 °F 30.0 °F 62% 30.13 in 10.0 mi NW 9.2 mph 20.7 mph N/A   Partly Cloudy
6:54 AM 42.1 °F 38.4 °F 30.0 °F 62% 30.17 in 10.0 mi NW 5.8 mph - N/A   Clear
7:54 AM 45.0 °F 40.6 °F 28.9 °F 53% 30.20 in 10.0 mi NNW 8.1 mph 19.6 mph N/A   Partly Cloudy
8:54 AM 46.9 °F - 27.0 °F 46% 30.22 in 10.0 mi NNW 11.5 mph 23.0 mph N/A   Clear
9:54 AM 50.0 °F - 28.0 °F 43% 30.21 in 10.0 mi NNW 11.5 mph 17.3 mph N/A   Clear
10:54 AM 51.1 °F - 30.0 °F 44% 30.22 in 10.0 mi NNW 4.6 mph - N/A   Clear
11:54 AM 54.0 °F - 32.0 °F 43% 30.22 in 10.0 mi Variable 4.6 mph - N/A   Clear
12:54 PM 55.9 °F - 30.9 °F 39% 30.21 in 10.0 mi NNW 8.1 mph - N/A   Clear
1:54 PM 57.9 °F - 28.9 °F 33% 30.19 in 10.0 mi Variable 4.6 mph - N/A   Clear
2:54 PM 60.1 °F - 30.9 °F 33% 30.19 in 10.0 mi WNW 3.5 mph - N/A   Clear
3:54 PM 60.1 °F - 27.0 °F 28% 30.18 in 10.0 mi Variable 5.8 mph - N/A   Clear
4:54 PM 62.1 °F - 30.0 °F 30% 30.17 in 10.0 mi WNW 6.9 mph - N/A   Clear
5:54 PM 61.0 °F - 26.1 °F 26% 30.19 in 10.0 mi SW 5.8 mph - N/A   Clear
6:54 PM 59.0 °F - 24.1 °F 26% 30.19 in 10.0 mi SW 4.6 mph - N/A   Clear
7:54 PM 55.9 °F - 23.0 °F 28% 30.21 in 10.0 mi WSW 3.5 mph - N/A   Clear
8:54 PM 52.0 °F - 26.1 °F 37% 30.24 in 10.0 mi WSW 3.5 mph - N/A   Clear
9:54 PM 51.1 °F - 28.0 °F 41% 30.26 in 10.0 mi Calm Calm - N/A   Clear
10:54 PM 46.9 °F - 28.9 °F 50% 30.27 in 10.0 mi Calm Calm - N/A   Clear
11:54 PM 46.0 °F - 30.9 °F 56% 30.28 in 10.0 mi Calm Calm - N/A   Clear